This is the latest recevied weather packets stored in our database for station/object 4S6DRJ-13. If no packets are shown the sender has not sent any weather packets the latest 10 day(s).
| Time | Temp. | Humidity | Pressure | Rain* | Wind** | Luminosity | Snow |
|---|---|---|---|---|---|---|---|
| 1787810283 | 30° C | 74% | 1010.7 hPa | 0 mm | 4.02 m/s, 312° | 631 W/m² | - |
| 1787810221 | 30° C | 74% | 1010.7 hPa | 0 mm | 2.68 m/s, 16° | 649 W/m² | - |
| 1787810161 | 30° C | 74% | 1010.9 hPa | 0 mm | 2.68 m/s, 329° | 649 W/m² | - |
| 1787810099 | 30° C | 74% | 1010.7 hPa | 0 mm | 1.79 m/s, 295° | 637 W/m² | - |
| 1787810039 | 30° C | 74% | 1010.7 hPa | 0 mm | 1.34 m/s, 231° | 621 W/m² | - |
| 1787809978 | 30° C | 74% | 1010.6 hPa | 0 mm | 2.24 m/s, 233° | 608 W/m² | - |
| 1787809916 | 30° C | 73% | 1010.8 hPa | 0 mm | 1.34 m/s, 204° | 617 W/m² | - |
| 1787809855 | 30° C | 74% | 1010.8 hPa | 0 mm | 1.34 m/s, 332° | 612 W/m² | - |
| 1787809794 | 30° C | 74% | 1010.9 hPa | 0 mm | 0.89 m/s, 209° | 583 W/m² | - |
| 1787809733 | 30° C | 74% | 1010.8 hPa | 0 mm | 1.79 m/s, 150° | 587 W/m² | - |
| 1787809672 | 30° C | 73% | 1010.8 hPa | 0 mm | 2.24 m/s, 213° | 602 W/m² | - |
| 1787809612 | 30° C | 73% | 1010.8 hPa | 0 mm | 2.24 m/s, 299° | 564 W/m² | - |
| 1787809554 | 30° C | 72% | 1010.9 hPa | 0 mm | 4.02 m/s, 291° | 556 W/m² | - |
| 1787809489 | 30.56° C | 72% | 1010.9 hPa | 0 mm | 2.68 m/s, 293° | 591 W/m² | - |
| 1787809429 | 30.56° C | 73% | 1010.9 hPa | 0 mm | 1.79 m/s, 37° | 585 W/m² | - |
| 1787809368 | 30.56° C | 73% | 1010.8 hPa | 0 mm | 1.34 m/s, 226° | 655 W/m² | - |
| 1787809307 | 30.56° C | 73% | 1010.8 hPa | 0 mm | 1.34 m/s, 232° | 703 W/m² | - |
| 1787809246 | 30.56° C | 73% | 1010.8 hPa | 0 mm | 2.24 m/s, 231° | 698 W/m² | - |
| 1787809185 | 30.56° C | 73% | 1010.8 hPa | 0 mm | 0.89 m/s, 83° | 577 W/m² | - |
| 1787809124 | 30.56° C | 73% | 1010.9 hPa | 0 mm | 1.34 m/s, 249° | 534 W/m² | - |
| 1787809063 | 30.56° C | 74% | 1010.9 hPa | 0 mm | 0.45 m/s, 188° | 544 W/m² | - |
| 1787809002 | 30.56° C | 73% | 1010.9 hPa | 0 mm | 0.89 m/s, 253° | 676 W/m² | - |
| 1787808940 | 30.56° C | 74% | 1010.9 hPa | 0 mm | 0.89 m/s, 304° | 810 W/m² | - |
| 1787808879 | 30.56° C | 74% | 1010.8 hPa | 0 mm | 0.45 m/s, 263° | 925 W/m² | - |
| 1787808819 | 30.56° C | 73% | 1010.9 hPa | 0 mm | 1.34 m/s, 258° | 890 W/m² | - |
* Rain latest hour (hover to see other rain measurements)
** Current wind speed in m/s (hover to see current wind gust speed)